Regional Weather Roundup
Issued by NWS Sterling, VA

Home | Current Version | Previous Version | Graphics & Text | Print | Product List | Glossary On
Versions: 1 2 3 4 5 6 7 8 9 10 11 12 13 14 15 16 17 18 19 20 21 22 23 24 25 26 27
000
ASUS41 KLWX 252311
RWRLWX

REGIONAL WEATHER ROUNDUP
NATIONAL WEATHER SERVICE BALTIMORE MD/WASHINGTON DC
700 PM EDT SUN SEP 25 2016

Note: "FAIR" indicates few or no clouds below 12,000 feet
with no significant weather and/or obstructions to visibility.
 TC=TEMPERATURE CELSIUS

 * =Non NWS site. Station does not report precipitation (e.g. rain,
    snow, etc.), thunder, or fog.

DCZ001-MDZ009-015-VAZ040>042-051-053>054-260000-
WASHINGTON METRO

CITY           SKY/WX    TMP DP  RH WIND       PRES   REMARKS
WASHINGTON NAT MOCLDY    69  52  54 SW7       30.15R
DULLES         PTCLDY    65  50  58 S6        30.15R
ANDREWS AFB    CLEAR     64  50  60 E6        30.15R
FT BELVOIR     CLEAR     67  54  62 W3        30.15R
QUANTICO         N/A     69  54  58 CALM      30.16R
COLLEGE PARK*  CLEAR     66  46  48 SE3       30.15R
LEESBURG*      CLEAR     68  55  64 SW5       30.16S
MANASSAS*      CLOUDY    66  55  68 S3        30.16R
GAITHERSBURG*  CLEAR     66  46  48 CALM      30.18S

$$

MDZ006>007-011-014-260000-
BALTIMORE METRO

CITY           SKY/WX    TMP DP  RH WIND       PRES   REMARKS
BWI AIRPORT    MOCLDY    66  45  46 SE5       30.14S
MD SCIENCE CTR   N/A     68  45  43 MISG      30.15S
MARTIN STATE   PTCLDY    66  52  59 CALM      30.17R
ANNAPOLIS      CLEAR     69  48  47 E5        30.15R
FORT MEADE*    CLEAR     61  52  72 SE5       30.17R

$$

MDZ012-015-019>023-260000-
MARYLAND EASTERN SHORE

CITY           SKY/WX    TMP DP  RH WIND       PRES   REMARKS
OCEAN CITY     CLEAR     65  51  60 E6        30.16R
SALISBURY      CLEAR     63  55  75 SE3       30.16R
BAY BRIDGE AP* CLEAR     66  48  52 MISG      30.15S
CAMBRIDGE*     CLEAR     61  52  72 CALM      30.16R
EASTON*        PTCLDY    66  50  55 CALM      30.20R

$$

MDZ017>025-260000-
SOUTHERN MARYLAND

CITY           SKY/WX    TMP DP  RH WIND       PRES   REMARKS
PATUXENT RIVER CLEAR     65  51  60 N3        30.15R
ST INIGOES     CLEAR     63  55  75 CALM      30.14S
LEONARDTOWN*   CLEAR     61  52  72 CALM      30.17R

$$

MDZ003>005-260000-
NORTH CENTRAL MARYLAND

CITY           SKY/WX    TMP DP  RH WIND       PRES   REMARKS
FREDERICK*     CLEAR     68  54  60 SW7       30.16S
HAGERSTOWN APT CLEAR     71  47  42 SW5       30.13S

$$

MDZ501>502-260000-
WESTERN MARYLAND

CITY           SKY/WX    TMP DP  RH WIND       PRES   REMARKS
OAKLAND*       CLEAR     63  46  55 SE3       30.17F
CUMBERLAND*    CLEAR     70  46  43 CALM      30.15S

$$

VAZ025>031-260000-
SHENANDOAH VALLEY

CITY           SKY/WX    TMP DP  RH WIND       PRES   REMARKS
WINCHESTER*    CLEAR     64  54  68 S3        30.15S
FRONT ROYAL*   FAIR      63  55  77 CALM      30.14R
LURAY*         CLOUDY    64  55  72 CALM      30.15S
NEW MARKET*    CLOUDY   N/A N/A N/A CALM      30.13S
STAUNTON*      CLOUDY    64  59  85 CALM      30.17S
WAYNESBORO*    CLOUDY    63  58  82 E5        30.15F

$$

WVZ021-048>050-054>055-260000-
EASTERN WEST VIRGINIA PANHANDLE

CITY           SKY/WX    TMP DP  RH WIND       PRES   REMARKS
MARTINSBURG    CLEAR     65  51  60 S6        30.13S
PETERSBURG*    CLEAR     75  49  38 CALM      30.10R

$$

VAZ036>039-050-260000-
CENTRAL FOOTHILLS

CITY           SKY/WX    TMP DP  RH WIND       PRES   REMARKS
CHARLOTTESVILL PTCLDY    64  57  78 N3        30.15S
CULPEPER*      CLOUDY    63  56  79 CALM      30.17R
ORANGE*          N/A     64  55  72 CALM      30.17S
GORDONSVILLE*  CLOUDY    64  57  77 CALM      30.15R
WARRENTON*     MOCLDY    64  52  65 CALM      30.16R

$$

VAZ055>057-260000-
NORTH AND CENTRAL PIEDMONT

CITY           SKY/WX    TMP DP  RH WIND       PRES   REMARKS
FREDERICKSBRG* MOCLDY    67  58  71 CALM      30.14S
STAFFORD*      PTCLDY    62  60  93 CALM      30.19S

$$

NCZ024-NYZ072-PAZ021-071-VAZ022-071-260000-
OTHER REGIONAL OBSERVATIONS

CITY           SKY/WX    TMP DP  RH WIND       PRES   REMARKS
NEW YORK CITY  CLEAR     64  37  36 VRB3      30.17R
PHILADELPHIA   PTCLDY    70  41  34 NW8       30.14S
PITTSBURGH     MOCLDY    73  45  36 NE8       30.10S
ROANOKE        CLOUDY    68  62  81 SE6       30.16R
RICHMOND       CLOUDY    69  59  70 E3        30.14R
RALEIGH        CLOUDY    71  66  84 E3        30.12R

$$

ANZ530>537-260000-
MARINE OBSERVATIONS

STATION/POSITION TIME  TEMP    WIND        PRES
                       AIR SEA DIR/SP/G
                 (UTC) (F)     (DEG/KT/KT) (MB)
THOMAS PT LIGHT  2300   69 75   60/  5/  6 1022.4R
BALT KEY BRIDGE  2242          120/  5/  7 1020.8R
COVE POINT       2242           40/  5/  7 1021.6R
LEWISETTA        2242      75  110/  3/  4 1020.5R
SOLOMONS ISLAND  2242      77   10/  4/  5   N/A
PINEY POINT      2242           70/  4/  6   N/A

$$





USA.gov is the U.S. government's official web portal to all federal, state and local government web resources and services.